Weather History for KBIV - June, 2012

Change the Weather History Date:

Wednesday, June 13, 2012

  Actual Average Record
Temperature  
Mean Temperature 62 °F 68 °F  
Max Temperature 76 °F 78 °F 94 °F (1976)
Min Temperature 48 °F 58 °F 38 °F (1985)
Degree Days  
Heating Degree Days 3 2  
Month to date heating degree days 34  
Since 1 June heating degree days 34  
Since 1 July heating degree days 6146  
Cooling Degree Days 0 4  
Month to date cooling degree days 45  
Year to date cooling degree days 87  
Since 1 June cooling degree days 45  
Growing Degree Days 12 (Base 50)    
Moisture  
Dew Point 43 °F    
Average Humidity 54    
Maximum Humidity 80    
Minimum Humidity 27    
Precipitation  
Precipitation 0.00 in 0.15 in 2.28 in (1981)
Month to date precipitation 0.31 1.92  
Year to date precipitation 14.51  
Sea Level Pressure  
Sea Level Pressure 30.19 in    
Wind  
Wind Speed 4 mph (NNE)    
Max Wind Speed 13 mph    
Max Gust Speed 17 mph    
Visibility 10 miles    
Events      
T = Trace of Precipitation, MM = Missing Value Source: NWS Daily Summary

Daily Weather History Graph

Daily Weather History Graph

Search for Another Location

Airport or City:

Trip Planner

Search our weather history database for the weather conditions in past years. The results will help you decide how hot, cold, wet, or windy it might be!

Date:

Astronomy

Jun. 13, 2012 Rise Set
Actual Time 6:05 AM EDT 9:23 PM EDT
Civil Twilight 5:30 AM EDT 9:58 PM EDT
Nautical Twilight 4:45 AM EDT 10:44 PM EDT
Astronomical Twilight 3:49 AM EDT 11:40 PM EDT
Moon 2:24 AM EDT (6/13) 4:04 PM EDT (6/13)
Length of Visible Light 16h 28m
Length of Day
15h 18m
Waning Crescent, 29% of the Moon is Illuminated
Jun 13
Waning Crescent
Jun 19
New
Jun 26
First Quarter
Jul 3
Full
Jul 10
Last Quarter

Hourly Weather History & Observations

Time (EDT) Temp. Dew Point Humidity Pressure Visibility Wind Dir Wind Speed Gust Speed Precip Events Conditions
12:53 AM 54.0 °F 46.9 °F 77% 30.15 in 10.0 mi Calm Calm - N/A   Clear
1:53 AM 54.0 °F 46.0 °F 75% 30.17 in 10.0 mi Calm Calm - N/A   Clear
2:53 AM 55.0 °F 45.0 °F 69% 30.18 in 10.0 mi ENE 4.6 mph - N/A   Clear
3:53 AM 52.0 °F 45.0 °F 77% 30.19 in 10.0 mi East 4.6 mph - N/A   Clear
4:53 AM 51.1 °F 45.0 °F 80% 30.21 in 10.0 mi East 4.6 mph - N/A   Clear
6:53 AM 51.1 °F 44.1 °F 77% 30.24 in 10.0 mi East 3.5 mph - N/A   Clear
7:53 AM 55.0 °F 43.0 °F 64% 30.24 in 10.0 mi ENE 5.8 mph - N/A   Clear
8:53 AM 59.0 °F 39.0 °F 48% 30.24 in 10.0 mi East 8.1 mph - N/A   Clear
10:53 AM 66.0 °F 36.0 °F 33% 30.23 in 10.0 mi ENE 8.1 mph - N/A   Clear
11:53 AM 69.1 °F 37.0 °F 31% 30.23 in 10.0 mi Variable 6.9 mph - N/A   Clear
12:53 PM 71.1 °F 37.9 °F 30% 30.24 in 10.0 mi Variable 6.9 mph - N/A   Clear
1:53 PM 72.0 °F 37.0 °F 28% 30.23 in 10.0 mi Variable 5.8 mph - N/A   Clear
2:53 PM 73.9 °F 37.0 °F 26% 30.20 in 10.0 mi NNW 5.8 mph - N/A   Clear
3:53 PM 72.0 °F 44.1 °F 37% 30.18 in 10.0 mi West 6.9 mph - N/A   Clear
4:53 PM 72.0 °F 46.0 °F 40% 30.18 in 10.0 mi West 10.4 mph - N/A   Clear
5:53 PM 70.0 °F 43.0 °F 38% 30.18 in 10.0 mi NW 10.4 mph - N/A   Clear
6:53 PM 68.0 °F 44.1 °F 42% 30.17 in 10.0 mi WNW 8.1 mph - N/A   Clear
7:53 PM 66.0 °F 43.0 °F 43% 30.17 in 10.0 mi NNW 5.8 mph - N/A   Clear
8:53 PM 66.0 °F 45.0 °F 47% 30.16 in 10.0 mi Calm Calm - N/A   Clear
9:53 PM 61.0 °F 46.0 °F 58% 30.15 in 10.0 mi Calm Calm - N/A   Clear
10:53 PM 59.0 °F 46.0 °F 62% 30.15 in 10.0 mi Calm Calm - N/A   Clear
11:53 PM 57.0 °F 46.9 °F 69% 30.14 in 10.0 mi ENE 5.8 mph - N/A   Clear